Total_Precipitation_Accumulation
1.05 1.20 1.16 1.05 1.07 1.06 1.14 1.31 1.39 1.21 1.10 1.11 1.16 1.20 1.39 1.46 1.57 1.47 1.32 1.34 1.20 1.04 0.95 0.92 0.95 1.02 1.09 1.12 1.20 1.29 1.37 1.42 1.51 1.69 1.96 2.25 2.56 2.83
1.17 1.28 1.28 1.21 1.23 1.20 1.19 1.29 1.48 1.46 1.29 1.15 1.22 1.21 1.24 1.14 1.27 1.20 1.22 1.30 1.17 1.09 1.06 1.02 0.98 0.99 0.99 1.04 1.06 1.04 1.03 1.02 1.03 1.07 1.16 1.29 1.47 1.77
1.19 1.21 1.21 1.30 1.36 1.35 1.42 1.44 1.48 1.61 1.50 1.22 1.28 1.40 1.38 1.22 1.15 1.14 1.11 1.10 1.09 1.14 1.10 1.08 1.03 0.97 0.91 0.87 0.91 0.93 0.89 0.87 0.85 0.83 0.83 0.86 0.85 0.91
1.23 1.34 1.28 1.31 1.41 1.46 1.60 1.58 1.62 1.84 1.81 1.59 1.55 1.61 1.51 1.40 1.29 1.21 1.07 1.00 1.01 1.14 1.09 1.03 0.97 0.89 0.85 0.81 0.78 0.77 0.75 0.73 0.73 0.73 0.72 0.72 0.72 0.71
1.39 1.45 1.48 1.59 1.57 1.61 1.67 1.67 1.72 1.93 2.08 1.93 1.84 1.91 1.86 1.62 1.48 1.29 1.16 1.15 1.00 1.05 1.09 1.03 0.98 0.93 0.86 0.86 0.86 0.80 0.73 0.68 0.65 0.66 0.70 0.73 0.75 0.74
1.51 1.52 1.54 1.62 1.69 1.77 1.79 1.88 2.01 2.19 2.33 2.25 2.15 2.20 2.20 2.03 1.81 1.49 1.39 1.32 1.19 1.06 1.14 1.12 1.07 1.00 0.91 0.84 0.81 0.80 0.78 0.75 0.72 0.68 0.68 0.70 0.73 0.76
1.48 1.51 1.47 1.54 1.62 1.73 1.73 1.89 2.11 2.32 2.49 2.54 2.51 2.63 2.54 2.36 2.07 1.73 1.63 1.54 1.40 1.22 1.13 1.02 0.98 0.90 0.87 0.86 0.83 0.82 0.80 0.78 0.77 0.77 0.75 0.71 0.69 0.68
1.60 1.63 1.58 1.52 1.49 1.53 1.61 1.72 1.87 2.06 2.32 2.52 2.61 2.67 2.71 2.55 2.34 2.07 1.73 1.48 1.34 1.21 1.20 1.11 1.00 0.95 0.86 0.80 0.89 0.85 0.80 0.77 0.75 0.75 0.76 0.77 0.76 0.73
1.58 1.58 1.46 1.36 1.38 1.31 1.41 1.45 1.47 1.57 1.69 1.93 2.16 2.22 2.39 2.48 2.36 2.04 1.74 1.49 1.29 1.24 1.24 1.14 1.06 1.00 0.90 0.88 0.97 0.86 0.79 0.77 0.74 0.73 0.75 0.78 0.80 0.80
1.37 1.40 1.40 1.31 1.30 1.35 1.35 1.28 1.18 1.19 1.27 1.29 1.42 1.67 1.90 2.15 2.22 2.10 2.00 1.72 1.42 1.20 1.14 1.10 0.99 0.93 0.90 0.89 0.97 0.90 0.84 0.80 0.77 0.75 0.73 0.73 0.74 0.77
1.42 1.41 1.41 1.31 1.34 1.25 1.22 1.20 1.13 1.09 1.09 1.13 1.20 1.38 1.63 1.81 1.99 1.99 1.92 1.81 1.57 1.26 1.11 1.08 0.97 0.93 0.91 0.85 0.85 0.89 0.84 0.84 0.82 0.79 0.76 0.74 0.74 0.76
1.45 1.47 1.49 1.37 1.40 1.32 1.30 1.32 1.23 1.15 1.12 1.09 1.12 1.18 1.24 1.49 1.75 1.76 1.71 1.71 1.58 1.36 1.10 1.07 1.00 0.99 1.01 0.83 0.71 0.71 0.73 0.81 0.85 0.81 0.79 0.75 0.74 0.65
1.39 1.37 1.42 1.41 1.25 1.15 1.07 1.08 1.11 1.09 1.09 1.08 1.06 1.09 1.16 1.26 1.45 1.55 1.59 1.54 1.46 1.27 1.05 1.07 1.06 1.02 0.97 0.86 0.74 0.69 0.66 0.66 0.70 0.74 0.78 0.80 0.77 0.64
1.25 1.24 1.25 1.20 1.03 0.92 0.81 0.80 0.81 0.77 0.84 0.93 0.96 0.96 1.00 1.07 1.21 1.44 1.58 1.56 1.41 1.26 1.17 1.15 1.10 1.05 0.99 0.87 0.76 0.69 0.67 0.64 0.59 0.57 0.61 0.79 0.85 0.84
1.08 1.26 1.25 1.11 1.01 0.94 0.87 0.77 0.69 0.63 0.70 0.79 0.78 0.80 0.82 0.90 1.05 1.35 1.61 1.76 1.65 1.38 1.23 1.18 1.14 1.08 1.02 0.86 0.69 0.61 0.61 0.60 0.55 0.54 0.57 0.64 0.71 0.77
1.09 1.23 1.31 1.29 1.20 1.10 0.99 0.81 0.65 0.63 0.65 0.71 0.75 0.77 0.85 0.93 1.04 1.11 1.35 1.56 1.64 1.48 1.24 1.14 1.09 1.11 1.03 0.87 0.74 0.63 0.55 0.55 0.53 0.56 0.61 0.63 0.66 0.72
1.19 1.31 1.44 1.46 1.43 1.32 1.16 1.00 0.86 0.81 0.77 0.76 0.84 0.87 0.89 0.91 0.94 0.98 1.14 1.30 1.32 1.25 1.18 1.17 1.18 1.18 1.18 1.09 0.88 0.66 0.57 0.51 0.49 0.57 0.67 0.67 0.64 0.66
0.96 1.16 1.43 1.50 1.52 1.49 1.38 1.20 1.05 0.97 0.92 0.89 0.91 0.92 0.91 0.95 0.98 1.04 1.10 1.21 1.22 1.14 1.10 1.08 1.18 1.28 1.25 1.17 0.95 0.75 0.63 0.56 0.53 0.61 0.66 0.67 0.62 0.62
0.67 0.88 1.18 1.40 1.48 1.51 1.43 1.25 1.08 1.03 1.05 1.00 0.97 0.95 0.95 0.96 1.03 1.08 1.11 1.18 1.23 1.18 1.10 1.11 1.17 1.24 1.19 1.00 0.84 0.73 0.71 0.67 0.69 0.68 0.68 0.68 0.63 0.58
0.53 0.70 0.96 1.23 1.33 1.40 1.38 1.32 1.21 1.16 1.15 1.10 1.06 1.03 1.02 1.03 1.02 1.05 1.09 1.13 1.17 1.23 1.16 1.11 1.11 1.11 1.08 1.01 0.92 0.81 0.75 0.79 0.85 0.81 0.74 0.74 0.74 0.74
0.68 0.74 0.89 1.11 1.27 1.38 1.39 1.36 1.30 1.27 1.25 1.25 1.20 1.17 1.14 1.17 1.13 1.07 1.10 1.20 1.22 1.26 1.18 0.98 0.95 1.09 1.22 1.32 1.18 0.91 0.79 0.80 0.89 0.94 0.89 0.90 0.87 0.85
0.88 0.88 0.94 1.08 1.24 1.36 1.39 1.36 1.38 1.36 1.37 1.34 1.30 1.26 1.21 1.22 1.22 1.20 1.22 1.26 1.21 1.18 1.18 1.12 1.16 1.27 1.30 1.26 1.11 0.98 0.90 0.87 0.94 0.98 0.94 0.88 0.86 0.78
1.03 0.99 1.01 1.12 1.22 1.32 1.34 1.31 1.32 1.38 1.36 1.34 1.30 1.29 1.25 1.21 1.22 1.24 1.23 1.26 1.25 1.24 1.30 1.35 1.34 1.30 1.24 1.21 1.15 1.09 1.05 0.98 0.98 0.96 0.87 0.82 0.71 0.63